Flag for Japan Weather past 2 weeks in Shizuoka, Japan

Now
41 °F

Quite cool.


Feels Like: 39 °F
Forecast: 30 / 53 °F
Wind: 3 mph from Northwest

Location: Omaezaki

Current Time: Dec 27, 2014 at 7:58:58 PM

Latest Report: Dec 27, 2014 at 7:00 PM


Visibility: 13 mi

Pressure: 30.34 "Hg

Humidity: 61%

Dew point: 29 °F

Location of ShizuokaLocation

Historic Weather in Shizuoka — Graph

°F

Shizuoka temperature yesterday

Maximum temperature yesterday: 50 °F (at 3:00 PM)
Minimum temperature yesterday: 35 °F (at 7:00 AM)
Average temperature yesterday: 42 °F

Past Weeks' High & Low Weather Summary

 TemperatureHumidityPressure
High61 °F (Dec 20, 7:00 PM)100% (Dec 16, 2:00 PM)30.46 "Hg (Dec 16, 2:00 PM)
Low30 °F (Dec 19, 5:00 AM)26% (Dec 26, 3:00 PM)29.29 "Hg (Dec 16, 5:00 PM)
Average43 °F57%30.03 "Hg
* Reported Dec 12 6:00 PM — Dec 27 6:00 PM, Shizuoka, Weather by CustomWeather, © 2014

Note: Actual official high and low records may vary slightly from our data, if they occured in-between our weather recording intervals... More about our weather records

Advertising

Shizuoka weather history for previous 24 hours

 ConditionsComfort  
Time TempWeatherWind HumidityBarometerVisibility
6:00 PM
Dec 27
41 °FQuite cool.3 mph64%30.34 "Hg12 mi
5:00 PM43 °FQuite cool.No wind59%30.33 "Hg12 mi
4:00 PM47 °FCool.2 mph46%30.31 "Hg12 mi
3:00 PM49 °FCool.2 mph40%30.30 "Hg12 mi
2:00 PM49 °FCool.5 mph37%30.28 "Hg12 mi
1:00 PM49 °FCool.7 mph34%30.28 "Hg12 mi
12:00 PM47 °FCool.2 mph36%30.29 "Hg12 mi
11:00 AM46 °FCool.6 mph33%30.30 "Hg12 mi
10:00 AM43 °FQuite cool.6 mph35%30.29 "Hg12 mi
9:00 AM41 °FQuite cool.8 mph35%30.27 "Hg12 mi
8:00 AM36 °FChilly.8 mph42%30.26 "Hg12 mi
7:00 AM33 °FChilly.9 mph46%30.24 "Hg12 mi
5:00 AM35 °FChilly.14 mph43%30.21 "Hg12 mi
4:00 AM36 °FChilly.14 mph43%30.20 "Hg12 mi
3:00 AM37 °FChilly.15 mph43%30.19 "Hg12 mi
2:00 AM38 °FChilly.17 mph42%30.18 "Hg12 mi
1:00 AM39 °FChilly.16 mph45%30.16 "Hg12 mi
12:00 AM40 °FQuite cool.20 mph49%30.15 "Hg12 mi
11:00 PM
Dec 26
40 °FQuite cool.20 mph43%30.15 "Hg12 mi
10:00 PM41 °FQuite cool.21 mph46%30.15 "Hg12 mi
9:00 PM42 °FQuite cool.23 mph44%30.14 "Hg12 mi
8:00 PM42 °FQuite cool.24 mph48%30.14 "Hg12 mi
7:00 PM43 °FQuite cool.22 mph45%30.14 "Hg12 mi
Weather by CustomWeather, © 2014

See weather overviewHow to use our weather pages